www.pogodaiklimat.ru

Погода и климат >> Архив погоды >> Россия >> Челябинская область >> Верхнеуральск


ПОГОДА в Верхнеуральске

  • Прогноз погоды в Верхнеуральске
  • Монитор погоды в Верхнеуральске

АРХИВ ПОГОДЫ в Верхнеуральске

Время (UTC), дата Ветер
(напр.,м/с)
 
Видим.   Явления Облачность Т
(С)
Тd
(С)
f
(%)
Тe
(С)
Тes
(С)
Комфортность P
(гПа)
Po
(гПа)
Тmin
(С)
Tmax
(С)
R
(мм)
R24
(мм)
S
(см)
03 13.08 СВ 1 20 км слаб. ливневой дождь 10/10 300 м
[Cb calv]
+13.7 +12.5 92 +14 +14 997.6 951.2 +9.4 0.8
06 13.08 С 5 20 км {ливн. осадки} 8/5 600 м
[Sc Ac trans Ci fib]
+18.8 +14.4 76 +19 +21 997.3 951.7
09 13.08 С 7-10
{10}
20 км 9/8 600 м
[Cu Sc Ci fib]
+20.7 +13.4 63 +23 +23 комфорт 997.8 952.6
12 13.08 СВ 6-10
{13}
20 км 9/9 600 м
[Sc]
+19.3 +12.6 65 +20 +20 999.2 953.7
15 13.08 СВ 3
{11}
4000 м слаб. ливневой дождь 10/10 300 м
[Cb cap]
+16.5 +14.7 89 +16 +16 1001.2 955.1 +22.1 3
18 13.08 СЗ 1 4000 м дымка {ливн. осадки} 10/10 600 м
[Sc]
+15.7 +14.0 90 +16 +16 1002.4 955.7
21 13.08 С 2 4000 м слаб. ливневой дождь 10/10 300 м
[Cb cap]
+15.4 +13.5 88 +15 +15 1002.0 955.8
00 14.08 штиль 0 10 км {ливн. осадки} 10/10 600 м
[Sc]
+15.0 +13.4 90 +15 +15 1002.6 956.4
03 14.08 С 1 4000 м дымка {ливн. осадки} 10/10 600 м
[Cu Sc]
+14.8 +13.4 91 +15 +15 1006.9 960.3 +14.4 26
06 14.08 СВ 5 4000 м дымка {ливн. осадки} 10/10 600 м
[Cu Sc]
+17.8 +14.9 83 +17 +17 1006.6 960.7
09 14.08 С 4 10 км 8/8 600 м
[Cu Sc]
+20.2 +14.8 71 +23 +24 комфорт 1007.2 961.5
12 14.08 СЗ 2
{14}
20 км в посл. час гроза {ливн. осадки} 9/9 600 м
[Sc]
+16.4 +14.3 87 +16 +17 1009.2 962.8
15 14.08 С 1 20 км в посл. час ливневой дождь 10/10 600 м
[Sc]
+16.5 +15.5 94 +17 +17 1010.6 964.1 +22.1 4
18 14.08 штиль 0 10 км {ливн. осадки} 8/8 600 м
[Sc]
+12.8 +11.3 91 +12 +12 1012.7 965.5
21 14.08 штиль 0 4000 м дымка 4/4 600 м
[Sc]
+9.8 +8.6 92 +9 +9 1013.4 965.7
00 15.08 штиль 0 4000 м дымка 5/5 600 м
[Sc]
+9.0 +8.2 95 +8 +8 1014.7 966.8
03 15.08 В 1 20 км ясно +13.4 +12.7 96 +13 +16 1014.6 967.5 +8.8 0.5
06 15.08 С 1 20 км 4/4 600 м
[Cu med, cong Ci fib]
+20.0 +19.5 97 +25 +32 комфорт 1014.1 968.1
09 15.08 С 2 20 км 8/8 600 м
[Cu Sc]
+22.1 +20.1 88 +28 +30 душно 1013.4 967.9
12 15.08 СВ 2 н/о н/о +23.8 +12.5 49
15 15.08 С 1 20 км 6/6 600 м
[St]
+20.1 +17.7 86 +24 +24 комфорт 1013.7 968.0 +23.7
18 15.08 С 2 н/о н/о +16.5 +13.4 82
21 15.08 штиль 0 10 км 6/6 600 м
[Sc]
+11.5 +9.1 85 +11 +11 1017.4 969.8
00 16.08 штиль 0 4000 м дымка 6/6 600 м
[Sc]
+7.2 +5.4 88 +6 +6 1019.2 970.8
03 16.08 20 км 4/4 200 м
[]
+12.1 +10.4 89 1018.5 970.9 +6.8
06 16.08 СЗ 1 20 км 4/3 600 м
[Cu med, cong Ci fib]
+21.0 +14.3 66 +25 +33 комфорт 1016.6 970.7
09 16.08 С 2 20 км 3/3 600 м
[Cu med, cong]
+24.3 +11.5 45 +26 +34 жарко 1016.1 970.6
15 16.08 ЮЗ 1 20 км 3/3 600 м
[Sc]
+21.6 +15.6 69 +25 +25 комфорт 1016.0 970.1 +26.3
21 16.08 В 1 10 км ясно +11.3 +10.4 94 +11 +11 1018.9 971.2
03 17.08 СВ 1 20 км 8/0
[Ci fib]
+14.3 +13.4 94 +15 +17 1019.5 972.3 +9.3
09 17.08 З 3 20 км 10/3 600 м
[Cu med, cong Cs]
+27.4 +13.8 43 +29 +35 жарко 1017.1 972.0
15 17.08 штиль 0 20 км 8/0
[Cs]
+23.5 +18.6 74 +28 +28 душно 1017.1 971.5 +29.5
21 17.08 СЗ 1 10 км ясно +13.7 +12.9 95 +14 +14 1019.9 972.6
03 18.08 штиль 0 20 км 8/0
[Ci fib]
+16.0 +15.2 95 +16 +18 1020.0 973.1 +10.3
09 18.08 ЮЗ 2 20 км 10/0
[Cs]
+27.4 +13.7 43 +29 +39 жарко 1018.6 973.4
15 18.08 С 1 20 км 6/0
[Cs]
+22.5 +14.7 61 +26 +26 жарко 1020.1 974.1 +29.2
21 18.08 штиль 0 10 км 8/0
[Ci fib]
+12.4 +11.4 94 +12 +12 1024.0 976.3
03 19.08 СВ 1 20 км 10/4 600 м
[Sc Ac trans Ci fib]
+17.2 +15.7 91 +18 +19 1024.8 977.8 +10.9
09 19.08 Ю 1 20 км 9/0
[Cs]
+27.4 +16.0 50 +31 +42 душно 1023.7 978.3
15 19.08 В 5 20 км ясно +23.1 +15.0 60 +27 +27 душно 1023.9 977.9 +28.7
21 19.08 штиль 0 10 км 8/8 600 м
[Sc]
+15.5 +14.4 93 +15 +15 1025.1 977.8

 

Местоположение метеостанции Верхнеуральск (Челябинская область, Россия): широта 53.88 долгота 59.20 высота над уровнем моря 403 м.

В архиве по умолчанию представлена погода в Верхнеуральске за последнюю неделю. Архивные данные за месяц целиком и за предыдущие месяцы, начиная с января 2011 года, Вы можете получить, выбрав интересующий диапазон дат из раскрывающегося списка и нажав кнопку "Ввод!".


*Определитесь, кто Вы:
робот инопланетянин человек

Внимание! Время в таблицах - всемирное. Для получения местного времени необходимо прибавить поправку, которая равна 5 ч.

Смотрите также архив погоды в соседних городах и на ближайших метеорологических станциях:

Погода в Учалах (Башкирия, Россия) (55 км)
Погода в Белорецке (Башкирия, Россия) (57 км)
Погода в Магнитогорске (Челябинская область, Россия) (59 км)
Погода в Николаевке (Башкирия, Россия) (63 км)
Погода в Мирном (Челябинская область, Россия) (103 км)
Погода в Тукане (Башкирия, Россия) (104 км)
Погода в Ревети (Башкирия, Россия) (108 км)
Погода в Катав-Ивановске (Челябинская область, Россия) (118 км)
Погода в Кизильском (Челябинская область, Россия) (131 км)
Погода в Карталы (Челябинская область, Россия) (134 км)

Пояснения к столбцам:

Ветер - указаны скорость ветра в м/с - средняя за 10 мин, порывы в срок и между сроками (в фигурных скобках) и направление, откуда дует ветер: С - северный, СВ - северо-восточный, В - восточный, ЮВ - юго-восточный, Ю - южный, ЮЗ - юго-западный, З - западный, СЗ - северо-западный.
Видимость - горизонтальная дальность видимости в метрах или километрах. При видимости от 1 до 10 км при отсутствии осадков обычно наблюдается дымка, при ухудшении видимости до 1 км и менее - туман. В сухую погоду видимость может ухудшаться дымом, пылью или мглою.
Явления - указаны атмосферные явления, наблюдавшиеся в срок или в последний час перед сроком; фигурными скобками обозначены явления, наблюдавшиеся между сроками (за 1-3 часа до срока); квадратными скобками обозначены град или гололедные отложения с указанием их диаметра в мм.
Облачность - указаны через наклонную черту общая и нижняя облачность в баллах и высота нижней границы облаков в метрах; квадратными скобками обозначены формы облаков: Ci - перистые, Cs - перисто-слоистые, Cc - перисто-кучевые, Ac - высококучевые, As - высокослоистые, Sc - слоисто-кучевые, Ns - слоисто-дождевые, Cu - кучевые, Cb - кучево-дождевые. Подробнее классификацию облаков см. в Атласе облаков (PDF).
T - Температура воздуха - температура, измеренная на высоте 2 м над землей.
Td - Температура точки росы - температура, при понижении до которой содержащийся в воздухе водяной пар достигнет насыщения.
f - Относительная влажность воздуха - влажноcть воздуха, измеренная на высоте 2 м над землей.
Te - Эффективная температура - температура, которую ощущает одетый по сезону человек в тени. Характеристика душности погоды. При расчете учитывается влияние влажности воздуха и скорости ветра на теплоощущения человека.
Tes - Эффективная температура на солнце - температура, которую ощущает человек, с поправкой на солнечный нагрев. Характеристика знойности погоды. Зависит от высоты солнца над горизонтом, облачности и скорости ветра. Ночью, в пасмурную погоду, а также при ветре 12 м/с и более поправка равна нулю.
P - Атмосферное давление - приведенное к уровню моря атмосферное давление.
Po - Атмосферное давление - измеренное на уровне метеостанции атмосферное давление.
Tmin - Минимальная температура - минимум температуры воздуха на высоте 2 м над землей.
Tmax - Максимальная температура - максимум температуры воздуха на высоте 2 м над землей.
R - Количество осадков - Количество выпавших осадков за период времени, мм. При наведении курсора мыши на число - период времени, за который выпало указанное количество осадков.
R24 - Количество осадков - Количество выпавших осадков за 24 часа, мм.
S - Снежный покров - Высота снежного покрова, см. При наведении курсора мыши на число - состояние снежного покрова и степень покрытия местности в баллах.